DW6722 Weather Reports


Display with metric or nautical units.
time (UTC)temp
F
wind
direction
speed
MPH
gust
MPH
rain 1hr
in
rain 24hr
in
rain mn
in
humidity
%
barometer
mb
20260503004507 56 123 6.0 12.0 0.00 0.41 0.04 91 1011.9
20260503004007 56 120 5.0 8.0 0.00 0.41 0.04 91 1011.9
20260503003503 56 101 4.0 8.0 0.01 0.41 0.04 91 1011.9
20260503003004 56 126 5.0 8.0 0.01 0.41 0.04 91 1012.0
20260503002506 56 96 4.0 6.0 0.01 0.41 0.04 91 1011.9
20260503002003 56 89 2.0 4.0 0.01 0.41 0.04 91 1011.9
20260503001504 56 65 1.0 4.0 0.01 0.41 0.04 91 1011.9
20260503001003 56 60 2.0 4.0 0.01 0.41 0.04 91 1011.8
20260503000502 56 68 1.0 6.0 0.01 0.41 0.04 91 1011.9
20260503000001 56 90 3.0 6.0 0.01 0.41 0.04 91 1012.0
20260502235600 56 64 2.0 5.0 0.02 0.41 0.04 91 1012.1
20260502235100 56 84 1.0 7.0 0.02 0.41 0.04 91 1012.2
20260502234600 56 79 4.0 7.0 0.02 0.41 0.04 91 1012.2
20260502234059 57 68 2.0 6.0 0.02 0.41 0.04 91 1012.4
20260502233559 56 72 3.0 6.0 0.02 0.40 0.03 91 1012.6
20260502233102 57 115 4.0 7.0 0.03 0.40 0.03 91 1012.7
20260502232558 57 66 4.0 7.0 0.03 0.40 0.03 90 1012.5
20260502232059 56 49 4.0 6.0 0.03 0.40 0.03 91 1012.5
20260502231603 56 27 3.0 7.0 0.03 0.40 0.03 90 1012.6
20260502231058 56 72 3.0 7.0 0.03 0.40 0.03 90 1012.8
20260502230558 56 84 3.0 8.0 0.03 0.40 0.03 90 1012.7
20260502230111 56 72 4.0 14.0 0.03 0.40 0.03 90 1012.7
20260502225556 56 88 8.0 15.0 0.02 0.39 0.02 90 1012.6
20260502225056 56 46 11.0 15.0 0.02 0.39 0.02 90 1012.0
20260502224554 56 58 5.0 11.0 0.02 0.39 0.02 90 1012.7
20260502224053 57 44 7.0 11.0 0.02 0.39 0.02 90 1012.8
20260502223552 57 90 6.0 10.0 0.00 0.37 0.00 90 1013.2
20260502223051 57 110 6.0 10.0 0.00 0.37 0.00 90 1013.2
20260502222551 57 129 5.0 7.0 0.01 0.37 0.00 90 1013.1
20260502222052 57 108 4.0 7.0 0.02 0.37 0.00 90 1013.0
20260502221549 57 19 4.0 7.0 0.04 0.37 0.00 90 1012.9
20260502221051 57 58 4.0 9.0 0.06 0.37 0.00 90 1012.9
20260502220548 57 44 6.0 9.0 0.08 0.37 0.00 90 1012.8
20260502220048 57 46 5.0 8.0 0.10 0.37 0.00 89 1013.0
20260502215546 57 50 4.0 8.0 0.12 0.37 0.37 89 1013.1
20260502215045 57 88 4.0 9.0 0.16 0.37 0.37 89 1013.2
20260502214545 57 48 4.0 9.0 0.24 0.37 0.37 89 1013.1
20260502214046 57 41 7.0 9.0 0.28 0.37 0.37 89 1013.1
20260502213545 57 49 7.0 11.0 0.36 0.37 0.37 89 1013.1
20260502213045 56 21 9.0 11.0 0.37 0.37 0.37 88 1013.2
20260502212544 57 11 8.0 10.0 0.36 0.36 0.36 88 1013.3
20260502212044 57 4 7.0 10.0 0.35 0.35 0.35 88 1013.6
20260502211552 57 10 9.0 10.0 0.32 0.32 0.32 87 1013.5
20260502211046 57 358 5.0 7.0 0.31 0.31 0.31 87 1014.1
20260502210546 57 286 3.0 8.0 0.28 0.28 0.28 86 1014.5
20260502210043 57 264 4.0 11.0 0.27 0.27 0.27 85 1014.7
20260502205542 58 264 5.0 14.0 0.25 0.25 0.25 84 1014.9
20260502205042 58 220 7.0 18.0 0.20 0.20 0.20 82 1015.0
20260502204541 60 256 11.0 20.0 0.13 0.13 0.13 76 1014.9
20260502204041 62 209 9.0 24.0 0.08 0.08 0.08 74 1014.8
20260502203538 63 193 19.0 24.0 0.00 0.00 0.00 71 1014.6
20260502203039 63 213 16.0 24.0 0.00 0.00 0.00 68 1014.4
20260502202537 63 41 1.0 6.0 0.00 0.00 0.00 68 1013.3
20260502202037 63 14 4.0 6.0 0.00 0.00 0.00 68 1013.1
20260502201537 63 11 3.0 6.0 0.00 0.00 0.00 69 1013.1
20260502201037 63 3 4.0 7.0 0.00 0.00 0.00 69 1013.0
20260502200537 63 11 5.0 7.0 0.00 0.00 0.00 68 1013.1
20260502200043 63 6 5.0 8.0 0.00 0.00 0.00 68 1013.1
20260502195536 63 15 6.0 9.0 0.00 0.00 0.00 68 1013.1
20260502195035 63 14 7.0 9.0 0.00 0.00 0.00 68 1013.2
20260502194535 63 1 6.0 8.0 0.00 0.00 0.00 68 1013.3
20260502194036 63 6 5.0 7.0 0.00 0.00 0.00 69 1013.4
20260502193534 63 4 5.0 7.0 0.00 0.00 0.00 69 1013.3
20260502193033 63 16 5.0 8.0 0.00 0.00 0.00 69 1013.4
20260502192532 63 13 5.0 8.0 0.00 0.00 0.00 68 1013.5
20260502192033 64 3 5.0 9.0 0.00 0.00 0.00 68 1013.5
20260502191534 64 8 6.0 9.0 0.00 0.00 0.00 67 1013.5
20260502191032 64 4 6.0 9.0 0.00 0.00 0.00 68 1013.4
20260502190532 64 4 6.0 9.0 0.00 0.00 0.00 68 1013.4
20260502190032 64 1 6.0 9.0 0.00 0.00 0.00 68 1013.5
20260502185532 65 359 7.0 9.0 0.00 0.00 0.00 67 1013.5
20260502185031 65 356 6.0 10.0 0.00 0.00 0.00 67 1013.6
20260502184536 66 14 8.0 10.0 0.00 0.00 0.00 66 1013.6
20260502184005 66 347 7.0 10.0 0.00 0.00 0.00 66 1013.5
20260502183505 67 359 6.0 10.0 0.00 0.00 0.00 65 1013.6
20260502183005 67 349 7.0 9.0 0.00 0.00 0.00 64 1013.6
20260502182504 67 18 5.0 7.0 0.00 0.00 0.00 62 1013.6
20260502182004 68 9 4.0 7.0 0.00 0.00 0.00 62 1013.6
20260502181504 68 11 5.0 7.0 0.00 0.00 0.00 62 1013.5
20260502181004 68 7 4.0 6.0 0.00 0.00 0.00 61 1013.6
20260502180504 68 11 4.0 6.0 0.00 0.00 0.00 61 1013.6
20260502164056 70 328 5.0 6.0 0.00 0.00 0.00 59 1014.2
20260502163555 70 315 4.0 5.0 0.00 0.00 0.00 59 1014.3
20260502163101 70 310 3.0 6.0 0.00 0.00 0.00 60 1014.4
20260502162555 70 293 4.0 7.0 0.00 0.00 0.00 60 1014.5
20260502162054 70 289 5.0 8.0 0.00 0.00 0.00 61 1014.5
20260502161556 70 290 6.0 8.0 0.00 0.00 0.00 61 1014.5
20260502161052 70 297 6.0 8.0 0.00 0.00 0.00 61 1014.5
20260502160552 70 292 5.0 6.0 0.00 0.00 0.00 61 1014.6
20260502152046 69 293 5.0 8.0 0.00 0.00 0.00 63 1015.1
20260502151550 69 291 5.0 8.0 0.00 0.00 0.00 64 1015.2
20260502151044 69 314 6.0 9.0 0.00 0.00 0.00 63 1015.3
20260502150544 69 292 6.0 9.0 0.00 0.00 0.00 65 1015.4
20260502130529 66 274 9.0 11.0 0.00 0.00 0.00 69 1016.9
20260502123525 66 273 8.0 13.0 0.00 0.00 0.00 71 1017.0
20260502123029 66 278 6.0 13.0 0.00 0.00 0.00 69 1017.1
20260502122523 66 285 7.0 11.0 0.00 0.00 0.00 70 1017.2
20260502122025 66 276 7.0 11.0 0.00 0.00 0.00 70 1017.2
20260502121522 66 272 8.0 11.0 0.00 0.00 0.00 70 1017.3
20260502121021 66 276 7.0 12.0 0.00 0.00 0.00 70 1017.3
20260502120519 66 278 7.0 12.0 0.00 0.00 0.00 69 1017.4
20260502115518 67 274 4.0 8.0 0.00 0.00 0.00 67 1017.5
20260502115017 66 247 3.0 9.0 0.00 0.00 0.00 69 1017.6
20260502114517 66 276 3.0 9.0 0.00 0.00 0.00 69 1017.6
20260502114017 67 275 5.0 14.0 0.00 0.00 0.00 67 1017.7
20260502113519 68 245 6.0 14.0 0.00 0.00 0.00 65 1017.6
20260502113017 68 213 6.0 10.0 0.00 0.00 0.00 65 1017.6
20260502112517 68 212 6.0 10.0 0.00 0.00 0.00 65 1017.7
20260502112014 68 231 7.0 10.0 0.00 0.00 0.00 65 1017.8
20260502111514 67 217 4.0 10.0 0.00 0.00 0.00 66 1017.8
20260502111013 68 250 4.0 9.0 0.00 0.00 0.00 65 1017.8
20260502110513 67 219 3.0 7.0 0.00 0.00 0.00 66 1017.8
20260502110011 67 202 3.0 9.0 0.00 0.00 0.00 66 1017.9
20260502105511 67 259 2.0 9.0 0.00 0.00 0.00 67 1017.8
20260502105011 67 244 6.0 11.0 0.00 0.00 0.00 67 1017.9
20260502104515 67 245 6.0 8.0 0.00 0.00 0.00 66 1018.0
20260502104008 66 262 5.0 10.0 0.00 0.00 0.00 67 1018.1
20260502103508 66 248 5.0 10.0 0.00 0.00 0.00 67 1018.1
20260502103008 66 265 5.0 10.0 0.00 0.00 0.00 67 1018.2
20260502102507 67 264 5.0 10.0 0.00 0.00 0.00 66 1018.2
20260502102006 67 272 2.0 10.0 0.00 0.00 0.00 65 1018.2
20260502101506 66 191 4.0 12.0 0.00 0.00 0.00 65 1018.2
20260502101011 67 198 7.0 13.0 0.00 0.00 0.00 65 1018.2
20260502100504 66 196 7.0 13.0 0.00 0.00 0.00 66 1018.3
20260502091059 64 238 4.0 8.0 0.00 0.00 0.00 69 1018.6
20260502090554 63 203 6.0 10.0 0.00 0.00 0.00 69 1018.6
20260502071045 56 124 2.0 4.0 0.00 0.00 0.00 64 1018.3
20260502070546 56 129 3.0 4.0 0.00 0.00 0.00 63 1018.3
20260502070045 56 139 3.0 4.0 0.00 0.00 0.00 63 1018.4
20260502065545 56 124 2.0 3.0 0.00 0.00 0.00 61 1018.4
20260502065045 56 167 1.0 2.0 0.00 0.00 0.00 61 1018.4
20260502064543 56 213 1.0 2.0 0.00 0.00 0.00 62 1018.4
20260502064042 56 255 0.0 1.0 0.00 0.00 0.00 62 1018.3
20260502063541 55 255 0.0 1.0 0.00 0.00 0.00 62 1018.2
20260502063055 55 255 0.0 2.0 0.00 0.00 0.00 62 1018.4
20260502062541 55 255 1.0 2.0 0.00 0.00 0.00 62 1018.4
20260502062040 55 236 0.0 2.0 0.00 0.00 0.00 61 1018.3
20260502061547 55 263 1.0 2.0 0.00 0.00 0.00 61 1018.4
20260502061041 54 310 1.0 3.0 0.00 0.00 0.00 60 1018.4
20260502060539 54 173 0.0 7.0 0.00 0.00 0.00 60 1018.5
20260502060040 54 180 4.0 7.0 0.00 0.00 0.00 60 1018.8
20260502055539 54 203 4.0 6.0 0.00 0.00 0.00 60 1018.8
20260502055039 54 181 4.0 6.0 0.00 0.00 0.00 60 1018.8
20260502054539 54 157 2.0 7.0 0.00 0.00 0.00 60 1018.8
20260502054038 53 194 5.0 7.0 0.00 0.00 0.00 60 1018.8
20260502053536 53 195 5.0 7.0 0.00 0.00 0.00 60 1018.7
20260502053047 53 174 1.0 3.0 0.00 0.00 0.00 61 1018.5
20260502052535 53 196 1.0 5.0 0.00 0.00 0.00 60 1018.4
20260502052035 53 192 3.0 6.0 0.00 0.00 0.00 60 1018.3
20260502051536 53 184 3.0 8.0 0.00 0.00 0.00 60 1018.5
20260502051034 53 180 4.0 8.0 0.00 0.00 0.00 60 1018.4
20260502050533 53 200 3.0 5.0 0.00 0.00 0.00 60 1018.4
20260502050033 54 191 3.0 5.0 0.00 0.00 0.00 59 1018.4
20260502045533 54 198 2.0 4.0 0.00 0.00 0.00 59 1018.4
20260502045033 54 210 2.0 6.0 0.00 0.00 0.00 58 1018.2
20260502044532 54 208 5.0 6.0 0.00 0.00 0.00 57 1018.5
20260502044031 54 210 4.0 5.0 0.00 0.00 0.00 57 1018.4
20260502043531 54 207 3.0 5.0 0.00 0.00 0.00 57 1018.4
20260502043031 54 207 2.0 5.0 0.00 0.00 0.00 58 1018.3
20260502042532 54 187 3.0 5.0 0.00 0.00 0.00 59 1018.3
20260502042032 54 172 3.0 4.0 0.00 0.00 0.00 58 1018.4
20260502041529 54 141 2.0 4.0 0.00 0.00 0.00 58 1018.2
20260502041029 54 125 3.0 4.0 0.00 0.00 0.00 58 1018.2
20260502040529 54 136 3.0 4.0 0.00 0.00 0.00 58 1018.2
20260502040029 54 146 2.0 4.0 0.00 0.00 0.00 57 1018.1
20260502035528 54 118 2.0 4.0 0.00 0.00 0.00 58 1018.2
20260502035028 54 131 3.0 5.0 0.00 0.00 0.00 57 1018.3
20260502034527 54 144 3.0 5.0 0.00 0.00 0.00 56 1018.4
20260502034026 54 191 2.0 7.0 0.00 0.00 0.00 57 1018.4
20260502033526 54 127 5.0 7.0 0.00 0.00 0.00 57 1018.4
20260502033025 54 170 2.0 6.0 0.00 0.00 0.00 57 1018.4
20260502032524 54 135 3.0 6.0 0.00 0.00 0.00 56 1018.3
20260502032024 54 162 4.0 5.0 0.00 0.00 0.00 56 1018.4
20260502031524 54 128 4.0 5.0 0.00 0.00 0.00 56 1018.5
20260502031023 54 170 2.0 4.0 0.00 0.00 0.00 56 1018.6
20260502030525 53 223 2.0 4.0 0.00 0.00 0.00 57 1018.7
20260502030024 54 264 2.0 6.0 0.00 0.00 0.00 58 1018.7
20260502025519 54 257 3.0 6.0 0.00 0.00 0.00 57 1018.8
20260502025019 55 124 4.0 5.0 0.00 0.00 0.00 56 1018.6
20260502024518 55 122 3.0 5.0 0.00 0.00 0.00 56 1018.5
20260502024018 55 124 3.0 4.0 0.00 0.00 0.00 56 1018.6
20260502023518 55 129 2.0 3.0 0.00 0.00 0.00 56 1018.6
20260502023017 55 117 2.0 3.0 0.00 0.00 0.00 56 1018.6
20260502022513 55 124 1.0 4.0 0.00 0.00 0.00 57 1018.6
20260502022017 56 120 1.0 4.0 0.00 0.00 0.00 55 1018.7
20260502021512 56 127 3.0 5.0 0.00 0.00 0.00 54 1018.8
20260502021012 56 117 3.0 5.0 0.00 0.00 0.00 54 1018.8
20260502020511 56 131 4.0 5.0 0.00 0.00 0.00 54 1018.8
20260502020010 56 138 3.0 5.0 0.00 0.00 0.00 55 1018.9
20260502015509 56 131 4.0 5.0 0.00 0.00 0.00 54 1018.9
20260502015011 56 143 3.0 4.0 0.00 0.00 0.00 54 1018.9
20260502014508 56 139 3.0 4.0 0.00 0.00 0.00 54 1019.0
20260502014008 56 136 3.0 5.0 0.00 0.00 0.00 54 1019.0
20260502013506 56 140 2.0 5.0 0.00 0.00 0.00 53 1019.0
20260502013007 56 141 3.0 5.0 0.00 0.00 0.00 53 1019.0
20260502012506 56 133 3.0 4.0 0.00 0.00 0.00 54 1019.1
20260502012006 56 129 3.0 4.0 0.00 0.00 0.00 54 1019.1
20260502011505 56 126 2.0 5.0 0.00 0.00 0.00 55 1019.2
20260502011004 56 148 3.0 5.0 0.00 0.00 0.00 53 1019.2
20260502010502 57 141 3.0 5.0 0.00 0.00 0.00 52 1019.2
20260502010002 57 134 3.0 4.0 0.00 0.00 0.00 52 1019.3
20260502005601 57 130 3.0 4.0 0.00 0.00 0.00 51 1019.3
20260502005100 58 134 3.0 4.0 0.00 0.00 0.00 50 1019.3